STARLINK-11466, 62220

Orbit data source: Space-Track

STARLINK-11466, 62220 is a payload satellite owned by SpaceX/Seattle (US) in LEO that was launched on Thu, 05 Dec 2024 UTC via an FALCON 9 launch vehicle from the Air Force Western Test Range (AFWTR). Payload-class satellites include a variety of spacecraft equipped with specific instruments for various scientific and technological missions. These include communications satellites like Starlink; space stations such as the ISS; scientific satellites like the Hubble; Earth observation satellites from companies like Planet Labs, Umbra, and HawkEye 360; GPS; miniature CubeSats for education and research; and military/defense satellites.

Loading next visibility...
Identifier
62220, 2024-231C
Orbit
LEO
Last TLE update
10 hours ago
Origin
Manufacturer
SpaceX/Seattle
Mission
Operational Commercial Communications
Bus & Motor
STARLINK V2M, Unknown motor
Mass
730 kg wet, ~700 kg dry
Launch date (UTC)
2024-12-05 (7 months ago)
Launch vehicle
FALCON 9
Launch site
Air Force Western Test Range (AFWTR)
Object type
Payload
Rocket body
Debris
Shape & HBR
Box + 2 Pan, 29 m
Radar Cross Section
36.964 m², Large (>1 m²)

Expand to show TLE details & history

TLE from 10 hours ago
0 STARLINK-11466
1 62220U 24231C   25186.49102129  .00146938  00000-0  11940-2 0  9992
2 62220  53.1568 240.0508 0002018 148.0984 212.0156 15.69756386 34589
Epoch: 2025-07-05T11:47Z
TLE epoch observation values (Epoch: 2025-07-05T11:47:04.239Z)
Latitude
-0.00005°
Longitude
139.55479°
Altitude
361.662 km
Speed
7.693 km/s
True Right ascension
16h 00m 12s
True Declination
0° 00' 00"
Sunlit
Object was in full shadow at epoch
Visualization orbit readout
Latitude
-34.13181°
Longitude
-12.18962°
Altitude
369.641 km
Speed
7.688 km/s
Apparent Right ascension
02h 18m 14s
Apparent Declination
-56° 19' 30"
Sunlit
Object is in daylight
Visualization observer readout
Local Sidereal Time
09:50:18
Azimuth
225.634° WSW
Elevation
-44.449°
Doppler factor
1
Orbital elements
Apogee altitude
361.215 km
Perigee altitude
358.496 km
Semi-major axis
6,737.992 km
Eccentricity
0.0002
Inclination
53.1568°
RAAN
240.0508°
Arg. of periapsis
148.0984°
True anomaly
Unknown
Mean anomaly
212.0156°
Eccentric anomaly
Unknown
Mean motion
3.92417 °/min
Orbital period
91.74 mins
BSTAR
0.001194
Loading maneuver chart data...
Loading SW <> Apogee altitude chart data...
Loading historical data...
Loading historical data...
Loading historical data...
Loading historical data...
Loading historical data...
Loading historical data...
Loading historical data...

STARLINK-11466 Visibility forecast

Observer location: undefined°, undefined°

Span
Click to sort rows by Start time (UTC) header in descending order
Start Az.
Max El. time (UTC)
Max El. Az.
Max El.
End time (UTC)
End Az.
5 mins2025-07-06 06:18:11.831Z227.649° WSW2025-07-06 06:20:11.831Z222.377° SW41.213°2025-07-06 06:23:11.831Z50.839° ENE
4 mins2025-07-06 12:43:11.831Z323.63° NNW2025-07-06 12:45:11.831Z30.051° NE37.731°2025-07-06 12:47:11.831Z108.837° ESE
|